WA8SIE Weather Reports


time (UTC)temp
C
wind
direction
speed
KPH
gust
KPH
rain 1hr
cm
rain 24hr
cm
rain mn
cm
humidity
%
barometer
mb
20260504044011 10 148 0.0 0.0 0.00 0.00 0.00 72 1010.7
20260504043512 10 148 0.0 0.0 0.00 0.00 0.00 73 1010.7
20260504043011 10 148 0.0 0.0 0.00 0.00 0.00 72 1010.7
20260504042511 10 148 0.0 0.0 0.00 0.00 0.00 70 1010.8
20260504042011 10 148 0.0 0.0 0.00 0.00 0.00 71 1010.8
20260504041511 10 148 0.0 0.0 0.00 0.00 0.00 70 1010.8
20260504041010 10 148 0.0 0.0 0.00 0.00 0.00 68 1009.6
20260504040510 10 147 0.0 0.0 0.00 0.00 0.00 68 1009.6
20260504040011 10 148 0.0 0.0 0.00 0.00 0.00 67 1009.6
20260504035011 10 148 0.0 0.0 0.00 0.00 0.00 67 1009.8
20260504034513 10 148 0.0 0.0 0.00 0.00 0.00 67 1009.8
20260504034011 10 148 0.0 0.0 0.00 0.00 0.00 67 1009.7
20260504033511 10 148 0.0 0.0 0.00 0.00 0.00 67 1009.7
20260504033011 10 148 0.0 0.0 0.00 0.00 0.00 66 1009.7
20260504032011 10 148 0.0 0.0 0.00 0.00 0.00 65 1009.6
20260504031511 10 148 0.0 0.0 0.00 0.00 0.00 65 1009.6
20260504031010 10 148 0.0 0.0 0.00 0.00 0.00 65 1009.7
20260504030511 10 149 0.0 0.0 0.00 0.00 0.00 65 1009.7
20260504030011 10 148 0.0 0.0 0.00 0.00 0.00 65 1009.7
20260504025511 10 148 0.0 0.0 0.00 0.00 0.00 64 1009.8
20260504025011 10 148 0.0 0.0 0.00 0.00 0.00 65 1009.8
20260504024511 10 146 0.0 0.0 0.00 0.00 0.00 65 1009.8
20260504024011 10 146 0.0 0.0 0.00 0.00 0.00 66 1009.6
20260504023510 10 145 1.6 0.0 0.00 0.00 0.00 65 1009.6
20260504023011 10 146 0.0 0.0 0.00 0.00 0.00 65 1009.6
20260504022510 10 146 0.0 0.0 0.00 0.00 0.00 65 1009.4
20260504021510 10 146 0.0 0.0 0.00 0.00 0.00 64 1009.4
20260504020011 10 145 0.0 0.0 0.00 0.00 0.00 63 1009.5
20260504015511 10 146 0.0 0.0 0.00 0.00 0.00 62 1009.5
20260504014510 10 146 0.0 0.0 0.00 0.00 0.00 61 1009.5
20260504014012 10 145 3.2 0.0 0.00 0.00 0.00 61 1009.4
20260504013511 10 146 0.0 0.0 0.00 0.00 0.00 61 1009.4
20260504013011 10 145 0.0 0.0 0.00 0.00 0.00 60 1009.4
20260504012511 10 145 0.0 0.0 0.00 0.00 0.00 58 1009.4
20260504012011 10 148 3.2 0.0 0.00 0.00 0.00 58 1009.4
20260504011511 11 149 0.0 0.0 0.00 0.00 0.00 57 1009.4
20260504011010 11 148 3.2 0.0 0.00 0.00 0.00 56 1009.5
20260504010510 11 197 0.0 0.0 0.00 0.00 0.00 55 1009.5
20260504005510 11 198 0.0 0.0 0.00 0.00 0.00 53 1009.2
20260504005010 11 198 0.0 0.0 0.00 0.00 0.00 52 1009.2
20260504004512 12 197 0.0 0.0 0.00 0.00 0.00 51 1009.2
20260504004010 12 197 0.0 0.0 0.00 0.00 0.00 51 1009.4
20260504003511 12 197 0.0 0.0 0.00 0.00 0.00 50 1009.4
20260504003010 12 197 0.0 0.0 0.00 0.00 0.00 48 1009.4
20260504002510 12 198 0.0 0.0 0.00 0.00 0.00 49 1009.2
20260504002010 13 197 0.0 0.0 0.00 0.00 0.00 50 1009.2
20260504001011 13 197 0.0 0.0 0.00 0.00 0.00 41 1009.2
20260504000510 14 195 0.0 0.0 0.00 0.00 0.00 40 1009.2
20260504000010 15 195 0.0 0.0 0.00 0.00 0.00 38 1009.2
20260503235510 15 195 0.0 0.0 0.00 0.00 0.00 35 1009.2
20260503235010 15 302 0.0 0.0 0.00 0.00 0.00 34 1009.2
20260503234510 15 336 0.0 0.0 0.00 0.00 0.00 36 1009.2
20260503233510 15 336 0.0 0.0 0.00 0.00 0.00 38 1009.4
20260503233011 16 336 0.0 0.0 0.00 0.00 0.00 37 1009.4
20260503232512 16 282 0.0 0.0 0.00 0.00 0.00 34 1009.5
20260503232012 16 269 0.0 0.0 0.00 0.00 0.00 32 1009.5
20260503231010 16 269 0.0 0.0 0.00 0.00 0.00 32 1009.7
20260503230512 16 328 0.0 0.0 0.00 0.00 0.00 31 1009.7
20260503230010 16 327 0.0 0.0 0.00 0.00 0.00 35 1009.7
20260503225510 16 327 0.0 0.0 0.00 0.00 0.00 33 1009.8
20260503225012 16 328 0.0 0.0 0.00 0.00 0.00 31 1009.8
20260503224510 16 328 0.0 0.0 0.00 0.00 0.00 31 1009.8
20260503223510 16 328 0.0 0.0 0.00 0.00 0.00 30 1009.7
20260503223010 16 297 0.0 0.0 0.00 0.00 0.00 31 1009.7
20260503222510 16 11 0.0 0.0 0.00 0.00 0.00 31 1009.8
20260503222010 16 12 0.0 0.0 0.00 0.00 0.00 30 1009.8
20260503221510 16 296 0.0 0.0 0.00 0.00 0.00 31 1009.8
20260503221011 16 297 0.0 0.0 0.00 0.00 0.00 32 1010.0
20260503220011 16 192 3.2 0.0 0.00 0.00 0.00 30 1010.0
20260503215511 16 145 0.0 0.0 0.00 0.00 0.00 29 1010.1
20260503215011 16 131 0.0 0.0 0.00 0.00 0.00 31 1010.1
20260503214511 16 194 0.0 0.0 0.00 0.00 0.00 29 1010.1
20260503214011 16 201 0.0 0.0 0.00 0.00 0.00 29 1010.1
20260503213511 16 213 6.4 0.0 0.00 0.00 0.00 29 1010.1
20260503213011 16 173 1.6 0.0 0.00 0.00 0.00 29 1010.1
20260503212511 16 192 4.8 0.0 0.00 0.00 0.00 30 1010.1
20260503212011 16 281 0.0 0.0 0.00 0.00 0.00 30 1010.1
20260503211511 16 328 3.2 0.0 0.00 0.00 0.00 29 1010.1
20260503211011 16 34 0.0 0.0 0.00 0.00 0.00 30 1010.1
20260503210011 16 197 0.0 0.0 0.00 0.00 0.00 29 1010.1
20260503205511 16 214 4.8 0.0 0.00 0.00 0.00 28 1010.4
20260503205011 16 298 4.8 0.0 0.00 0.00 0.00 29 1010.4
20260503204511 16 299 3.2 0.0 0.00 0.00 0.00 29 1010.4
20260503204011 16 228 6.4 0.0 0.00 0.00 0.00 29 1010.6
20260503203011 16 212 0.0 0.0 0.00 0.00 0.00 29 1010.6
20260503202512 16 108 0.0 0.0 0.00 0.00 0.00 29 1010.9
20260503202011 17 261 1.6 0.0 0.00 0.00 0.00 31 1010.9
20260503201513 16 279 0.0 0.0 0.00 0.00 0.00 30 1010.9
20260503201011 16 330 6.4 0.0 0.00 0.00 0.00 31 1011.0
20260503200511 16 281 0.0 0.0 0.00 0.00 0.00 29 1011.0
20260503200013 16 6 0.0 0.0 0.00 0.00 0.00 30 1011.0
20260503195511 16 291 4.8 0.0 0.00 0.00 0.00 34 1011.5
20260503195012 16 314 0.0 0.0 0.00 0.00 0.00 32 1011.5
20260503194511 16 288 0.0 0.0 0.00 0.00 0.00 30 1011.5
20260503194011 16 288 3.2 0.0 0.00 0.00 0.00 30 1011.6
20260503193511 16 307 0.0 0.0 0.00 0.00 0.00 32 1011.6
20260503193011 16 328 3.2 0.0 0.00 0.00 0.00 31 1011.6
20260503192511 16 352 0.0 0.0 0.00 0.00 0.00 30 1012.1
20260503192011 16 308 0.0 0.0 0.00 0.00 0.00 30 1012.1
20260503191511 16 187 0.0 0.0 0.00 0.00 0.00 30 1012.1
20260503191011 16 342 9.7 0.0 0.00 0.00 0.00 30 1012.2
20260503190511 16 97 0.0 0.0 0.00 0.00 0.00 31 1012.2
20260503190012 16 290 0.0 0.0 0.00 0.00 0.00 34 1012.2
20260503185511 15 306 0.0 0.0 0.00 0.00 0.00 35 1012.7
20260503185010 16 336 9.7 0.0 0.00 0.00 0.00 32 1012.7
20260503184511 16 3.2 0.0 0.00 0.00 0.00 30 1012.7
20260503184012 15 204 0.0 0.0 0.00 0.00 0.00 35 1012.8
20260503183511 15 200 0.0 0.0 0.00 0.00 0.00 34 1012.8
20260503183011 15 337 3.2 0.0 0.00 0.00 0.00 31 1012.8
20260503182511 15 309 0.0 0.0 0.00 0.00 0.00 32 1013.0
20260503182011 15 256 4.8 0.0 0.00 0.00 0.00 34 1013.0
20260503181511 15 314 0.0 0.0 0.00 0.00 0.00 36 1013.0
20260503181011 15 259 0.0 0.0 0.00 0.00 0.00 35 1013.1
20260503180512 15 331 8.0 0.0 0.00 0.00 0.00 34 1013.1
20260503180011 15 323 3.2 0.0 0.00 0.00 0.00 38 1013.1
20260503175511 15 359 8.0 0.0 0.00 0.00 0.00 34 1013.4
20260503175011 15 241 0.0 0.0 0.00 0.00 0.00 36 1013.4
20260503174011 14 304 6.4 0.0 0.00 0.00 0.00 34 1013.4
20260503173511 14 280 0.0 0.0 0.00 0.00 0.00 37 1013.4
20260503172510 13 319 0.0 0.0 0.00 0.00 0.00 38 1013.7
20260503171511 14 36 3.2 0.0 0.00 0.00 0.00 33 1013.7
20260503170511 14 319 1.6 0.0 0.00 0.00 0.00 34 1014.0
20260503151010 11 328 0.0 0.0 0.00 0.00 0.00 43 1015.2
20260503150510 11 316 6.4 0.0 0.00 0.00 0.00 42 1015.2
20260503131011 7 214 0.0 0.0 0.00 0.00 0.00 68 1015.4
20260503130511 6 214 0.0 0.0 0.00 0.00 0.00 70 1015.4
20260503110511 8 319 0.0 0.0 0.00 0.00 0.00 50 1011.6
20260503090510 8 319 0.0 0.0 0.00 0.00 0.00 50 1011.6
20260503081510 8 319 0.0 0.0 0.00 0.00 0.00 50 1011.6
20260503081011 8 319 0.0 0.0 0.00 0.00 0.00 50 1011.6
20260503072010 8 319 0.0 0.0 0.00 0.00 0.00 50 1011.6
20260503071510 8 319 0.0 0.0 0.00 0.00 0.00 50 1011.6
20260503071010 8 319 0.0 0.0 0.00 0.00 0.00 50 1011.6
20260503070511 8 319 0.0 0.0 0.00 0.00 0.00 50 1011.6
20260503055011 8 319 0.0 0.0 0.00 0.00 0.00 50 1011.6
20260503054511 8 319 0.0 0.0 0.00 0.00 0.00 50 1011.6
20260503054011 8 319 0.0 0.0 0.00 0.00 0.00 50 1011.6
20260503053511 8 319 0.0 0.0 0.00 0.00 0.00 50 1011.6
20260503053011 8 319 0.0 0.0 0.00 0.00 0.00 50 1011.6
20260503052511 8 319 0.0 0.0 0.00 0.00 0.00 50 1011.6
20260503052011 8 319 0.0 0.0 0.00 0.00 0.00 50 1011.6
20260503051513 8 319 0.0 0.0 0.00 0.00 0.00 50 1011.6
20260503050511 8 319 0.0 0.0 0.00 0.00 0.00 50 1011.6
20260503050011 8 319 0.0 0.0 0.00 0.00 0.00 50 1011.6
20260503045511 8 319 0.0 0.0 0.00 0.00 0.00 50 1011.6
20260503045011 8 319 0.0 0.0 0.00 0.00 0.00 50 1011.6
20260503044511 8 319 0.0 0.0 0.00 0.00 0.00 50 1011.6